User: anonymous   Login
Location: Albany
(35.0000°S, 118.0000°E)
Time: 23:08:02
(UTC-05:00)
Language:

SJ-6B - Orbit

View from above orbital plane
View from above orbital plane
View from above satellite
View from above satellite

Ground track
Ground track

The orbit data is extracted from the following two-line orbital elements,

1 28415U 04035C   15031.45839541  .00003780  00000-0  27140-3 0  4036
2 28415 097.7963 042.6402 0055440 179.2941 180.8372 15.03697197568031
Epoch (UTC): 31 January 2015 11:00:05
Eccentricity: 0.0055440
inclination: 97.7963°
perigee height: 517 km
apogee height: 594 km
right ascension of ascending node: 42.6402°
argument of perigee: 179.2941°
revolutions per day: 15.03697197
mean anomaly at epoch: 180.8372°
orbit number at epoch: 56803

The dashed part of the orbit path shows where the satellite is in the earth's shadow,  

DLR